Hammond, LA

11:09 AM CDT on May 27, 2018 (GMT -0500)
Hammond Municipal

Weather History for KHDC - December, 2013

Change the Weather History Date:

Sunday, December 22, 2013

  Actual Average (WUND) Record (WUND)
Temperature  
Mean Temperature 65 °F -  
Max Temperature 73 °F - - (-1)
Min Temperature 57 °F - - (-1)
Growing Degree Days 15 (Base 50)    
Moisture  
Dew Point 56 °F    
Average Humidity 82    
Maximum Humidity 88    
Minimum Humidity 60    
Precipitation  
Precipitation 0.19 in - - ()
Sea Level Pressure  
Sea Level Pressure 30.00 in    
Wind  
Wind Speed 4 mph (NNW)    
Max Wind Speed 14 mph    
Max Gust Speed 17 mph    
Visibility 10 miles    
Events Rain , Thunderstorm    
Averages and records for this station are not official NWS values.
T = Trace of Precipitation, MM = Missing Value Source: NWS Daily Summary

Daily Weather History Graph

Daily Weather History Graph

Search for Another Location

Airport or City:

Astronomy

Dec. 22, 2013 Rise Set
Actual Time 6:55 AM CST 5:05 PM CST
Civil Twilight 6:28 AM CST 5:32 PM CST
Nautical Twilight 5:58 AM CST 6:02 PM CST
Astronomical Twilight 5:29 AM CST 6:31 PM CST
Moon 9:58 PM CST (12/22) 10:09 AM CST (12/22)
Length of Visible Light 11h 03m
Length of Day
10h 10m
Waning Gibbous, 76% of the Moon is Illuminated
Dec 22
Waning Gibbous
Dec 25
Last Quarter
Jan 1
New
Jan 7
First Quarter
Jan 15
Full

Hourly Weather History & Observations

Time (CST) Temp. Dew Point Humidity Pressure Visibility Wind Dir Wind Speed Gust Speed Precip Events Conditions
12:15 AM 73.4 °F 68.0 °F 83% 29.82 in 10.0 mi South 8.1 mph - N/A   Overcast
12:35 AM 73.4 °F 68.0 °F 83% 29.83 in 10.0 mi WSW 8.1 mph 17.3 mph N/A Thunderstorm Overcast
12:55 AM 66.2 °F 60.8 °F 83% 29.84 in 10.0 mi NNW 13.8 mph - N/A Thunderstorm Overcast
1:15 AM 62.6 °F 59.0 °F 88% 29.86 in 10.0 mi NNW 6.9 mph - N/A Rain Light Rain
1:35 AM 60.8 °F 57.2 °F 88% 29.88 in 7.0 mi NNW 8.1 mph - 0.02 in Rain Rain
1:55 AM 60.8 °F 57.2 °F 88% 29.90 in 7.0 mi NW 12.7 mph 17.3 mph 0.09 in Rain Rain
2:15 AM 59.0 °F 55.4 °F 88% 29.90 in 10.0 mi NW 9.2 mph - 0.01 in   Drizzle
2:35 AM 59.0 °F 55.4 °F 88% 29.89 in 10.0 mi NW 5.8 mph - 0.01 in   Light Drizzle
2:55 AM 59.0 °F 55.4 °F 88% 29.90 in 10.0 mi North 3.5 mph - 0.02 in Rain Light Rain
3:15 AM 59.0 °F 55.4 °F 88% 29.90 in 10.0 mi Calm Calm - N/A Thunderstorm Unknown
3:35 AM 59.0 °F 55.4 °F 88% 29.90 in 10.0 mi Calm Calm - N/A   Light Drizzle
3:55 AM 59.0 °F 55.4 °F 88% 29.90 in 7.0 mi Calm Calm - 0.02 in Rain Light Rain
4:15 AM 59.0 °F 55.4 °F 88% 29.90 in 10.0 mi North 3.5 mph - 0.04 in Rain Light Rain
4:35 AM 59.0 °F 55.4 °F 88% 29.89 in 10.0 mi Calm Calm - 0.04 in   Overcast
4:55 AM 59.0 °F 55.4 °F 88% 29.90 in 10.0 mi Calm Calm - 0.04 in Rain , Thunderstorm Light Thunderstorms and Rain
5:15 AM 59.0 °F 55.4 °F 88% 29.91 in 10.0 mi Calm Calm - N/A   Overcast
5:35 AM 59.0 °F 55.4 °F 88% 29.91 in 10.0 mi Calm Calm - N/A   Overcast
5:55 AM 59.0 °F 55.4 °F 88% 29.91 in 10.0 mi Calm Calm - N/A Rain Light Rain
6:15 AM 59.0 °F 55.4 °F 88% 29.92 in 10.0 mi Calm Calm - N/A   Overcast
6:35 AM 59.0 °F 55.4 °F 88% 29.91 in 10.0 mi Calm Calm - N/A   Overcast
6:55 AM 59.0 °F 55.4 °F 88% 29.92 in 10.0 mi Calm Calm - N/A   Overcast
7:15 AM 59.0 °F 55.4 °F 88% 29.93 in 10.0 mi Calm Calm - N/A   Overcast
7:35 AM 59.0 °F 55.4 °F 88% 29.95 in 10.0 mi Calm Calm - N/A   Overcast
7:55 AM 59.0 °F 55.4 °F 88% 29.95 in 10.0 mi Calm Calm - N/A   Overcast
8:15 AM 59.0 °F 55.4 °F 88% 29.96 in 10.0 mi Calm Calm - N/A   Overcast
8:35 AM 60.8 °F 55.4 °F 82% 29.96 in 10.0 mi Calm Calm - N/A   Overcast
8:55 AM 60.8 °F 55.4 °F 82% 29.98 in 10.0 mi Calm Calm - N/A   Overcast
9:15 AM 60.8 °F 55.4 °F 82% 29.99 in 10.0 mi Calm Calm - N/A Thunderstorm Overcast
9:35 AM 60.8 °F 55.4 °F 82% 30.00 in 10.0 mi East 3.5 mph - N/A Thunderstorm Overcast
9:55 AM 60.8 °F 55.4 °F 82% 30.01 in 10.0 mi Calm Calm - N/A Thunderstorm Overcast
10:15 AM 60.8 °F 55.4 °F 82% 30.02 in 10.0 mi ESE 6.9 mph - N/A   Overcast
10:35 AM 60.8 °F 55.4 °F 82% 30.02 in 10.0 mi ESE 3.5 mph - N/A Thunderstorm Overcast
10:55 AM 62.6 °F 55.4 °F 77% 30.01 in 10.0 mi Calm Calm - N/A   Mostly Cloudy
11:15 AM 64.4 °F 55.4 °F 73% 30.00 in 10.0 mi ENE 3.5 mph - N/A   Mostly Cloudy
11:35 AM 64.4 °F 53.6 °F 68% 30.01 in 10.0 mi Calm Calm - N/A Thunderstorm Overcast
11:55 AM 64.4 °F 53.6 °F 68% 30.00 in 10.0 mi East 3.5 mph - N/A   Overcast
12:15 PM 64.4 °F 53.6 °F 68% 29.99 in 10.0 mi Calm Calm - N/A Thunderstorm Overcast
12:35 PM 66.2 °F 53.6 °F 64% 29.98 in 10.0 mi Calm Calm - N/A   Overcast
12:55 PM 66.2 °F 53.6 °F 64% 29.98 in 10.0 mi Calm Calm - N/A   Overcast
1:15 PM 66.2 °F 53.6 °F 64% 29.98 in 10.0 mi NW 3.5 mph - N/A   Overcast
1:35 PM 66.2 °F 51.8 °F 60% 29.97 in 10.0 mi Calm Calm - N/A   Overcast
1:55 PM 66.2 °F 53.6 °F 64% 29.97 in 10.0 mi Calm Calm - N/A   Overcast
2:15 PM 66.2 °F 53.6 °F 64% 29.97 in 10.0 mi Calm Calm - N/A   Overcast
2:35 PM 66.2 °F 53.6 °F 64% 29.98 in 10.0 mi Calm Calm - N/A   Overcast
2:55 PM 64.4 °F 55.4 °F 73% 29.99 in 10.0 mi Calm Calm - N/A Thunderstorm Overcast
3:15 PM 64.4 °F 57.2 °F 77% 30.01 in 10.0 mi Calm Calm - N/A Rain , Thunderstorm Light Thunderstorms and Rain
3:35 PM 62.6 °F 57.2 °F 82% 30.05 in 10.0 mi South 3.5 mph - 0.01 in Rain , Thunderstorm Light Thunderstorms and Rain
3:55 PM 62.6 °F 57.2 °F 82% 30.05 in 10.0 mi Calm Calm - 0.01 in Rain , Thunderstorm Light Thunderstorms and Rain
4:15 PM 62.6 °F 57.2 °F 82% 30.04 in 10.0 mi ESE 4.6 mph - N/A Rain Light Rain
4:35 PM 62.6 °F 57.2 °F 82% 30.02 in 10.0 mi ENE 3.5 mph - N/A Rain Light Rain
4:55 PM 60.8 °F 57.2 °F 88% 30.04 in 10.0 mi NW 5.8 mph - N/A Thunderstorm Overcast
5:15 PM 60.8 °F 55.4 °F 82% 30.03 in 10.0 mi NNW 4.6 mph - N/A   Overcast
5:35 PM 60.8 °F 51.8 °F 72% 30.05 in 10.0 mi NNW 4.6 mph - N/A   Overcast
5:55 PM 60.8 °F 51.8 °F 72% 30.05 in 10.0 mi NNW 3.5 mph - N/A   Overcast
6:15 PM 60.8 °F 53.6 °F 77% 30.08 in 10.0 mi Calm Calm - N/A Rain Light Rain
6:35 PM 60.8 °F 55.4 °F 82% 30.08 in 10.0 mi Calm Calm - N/A   Light Drizzle
6:55 PM 60.8 °F 53.6 °F 77% 30.07 in 10.0 mi Calm Calm - N/A   Overcast
7:15 PM 59.0 °F 55.4 °F 88% 30.09 in 10.0 mi SE 5.8 mph - 0.01 in Rain Light Rain
7:35 PM 59.0 °F 55.4 °F 88% 30.09 in 10.0 mi Calm Calm - 0.01 in Rain Light Rain
7:55 PM 59.0 °F 55.4 °F 88% 30.10 in 10.0 mi Calm Calm - 0.01 in   Overcast
8:15 PM 59.0 °F 55.4 °F 88% 30.12 in 10.0 mi Calm Calm - N/A   Overcast
8:35 PM 59.0 °F 55.4 °F 88% 30.15 in 10.0 mi South 8.1 mph - N/A Rain Light Rain
8:55 PM 59.0 °F 55.4 °F 88% 30.12 in 10.0 mi Calm Calm - N/A   Light Drizzle
9:15 PM 59.0 °F 55.4 °F 88% 30.11 in 10.0 mi Calm Calm - N/A   Scattered Clouds
9:35 PM 59.0 °F 55.4 °F 88% 30.15 in 7.0 mi Calm Calm - N/A   Mostly Cloudy
9:55 PM 59.0 °F 55.4 °F 88% 30.13 in 7.0 mi Calm Calm - N/A Rain Light Rain
10:15 PM 59.0 °F 55.4 °F 88% 30.14 in 10.0 mi NW 3.5 mph - N/A   Overcast
10:35 PM 59.0 °F 55.4 °F 88% 30.16 in 10.0 mi NW 5.8 mph - N/A   Overcast
10:55 PM 59.0 °F 53.6 °F 82% 30.16 in 10.0 mi NNW 5.8 mph - N/A   Mostly Cloudy
11:15 PM 57.2 °F 53.6 °F 88% 30.17 in 10.0 mi NW 5.8 mph - N/A   Mostly Cloudy
11:35 PM 57.2 °F 53.6 °F 88% 30.18 in 10.0 mi NW 6.9 mph - N/A   Mostly Cloudy
11:55 PM 57.2 °F 53.6 °F 88% 30.19 in 10.0 mi WNW 8.1 mph - N/A   Scattered Clouds